Regional Weather Roundup
Issued by NWS Goodland, KS

Home | Current Version | Previous Version | Text Only | Print | Product List | Glossary Off
Versions: 1 2 3 4 5 6 7 8 9 10 11 12 13 14 15 16 17 18 19 20 21 22 23 24 25 26 27 28 29 30 31 32 33 34 35 36 37 38 39 40 41 42 43 44 45 46 47 48 49 50

000
ASUS43 KGLD 220808
RWRGLD

GOODLAND FORECAST AREA HOURLY WEATHER ROUNDUP
NATIONAL WEATHER SERVICE GOODLAND KS
100 AM MST MON JAN 22 2018

...OFFICIAL OBSERVATIONS...

CITY           SKY/WX    TMP DP  RH WIND       PRES   REMARKS
GOODLAND KS    FOG       27  25  92 NW41G55   29.72S VSB 1/4 WCI   8
HILL CITY KS   LGT SNOW  32  32 100 N21G35    29.56R VSB 3/4 WCI  20
IMPERIAL NEB   FOG       27  26  96 NW38G47   29.77S VSB 1   WCI   9
MCCOOK NEB     LGT SNOW  30  29  96 N30G41    29.65S VSB 3/4 WCI  15
AKRON CO       CLOUDY    23  21  92 NW31G41   29.87S FOG     WCI   5
BURLINGTON CO  FOG       26  24  92 NW32G51   29.78S VSB 3/4 WCI   9
LIMON CO       LGT SNOW  21  19  92 NW32G44   29.86S VSB 1   WCI   2
$$

...UNOFFICIAL OBSERVATIONS...

CITY           SKY/WX    TMP DP  RH WIND       PRES   REMARKS
COLBY KS       LGT SNOW  30  30 100 NW16G23   29.68R VSB 1   WCI  19
NORTON KS      LGT SNOW  32  28  86 N21G26    29.57  WCI  20
SHARON SPRINGS   N/A     27  26  95 NW30G43     N/A  WCI  11
KIT CARSON CO    N/A     25  22  89 MISG        N/A
YUMA CO        LGT SNOW  25  23  93 NW23G32   29.86S WCI  10
$$




USA.gov is the U.S. government's official web portal to all federal, state and local government web resources and services.